Location: Manchester NH
(43.0000°N, 71.5000°W)
Time: 15:20:02
(UTC-04:00)

Tiangong - Visible Passes

Search period start: 28 May 2023 00:00
Search period end: 07 June 2023 00:00
Orbit: 387 x 392 km, 41.5° (Epoch: 28 May)

Date Brightness Start Highest point End Pass type
(mag) Time Alt. Az. Time Alt. Az. Time Alt. Az.
31 May 0.5 04:03:06 10° SSE 04:03:58 11° SSE 04:04:50 10° SE visible
02 Jun -0.2 03:42:48 16° S 03:43:48 18° SSE 03:46:07 10° ESE visible
03 Jun -1.4 04:19:05 11° SW 04:21:54 40° SSE 04:24:55 10° E visible
04 Jun -1.0 03:22:59 27° S 03:23:24 28° SSE 03:26:12 10° E visible
05 Jun 0.5 02:26:49 12° ESE 02:26:49 12° ESE 02:27:14 10° ESE visible
05 Jun -1.9 03:59:04 16° WSW 04:01:25 54° S 04:04:33 10° E visible
06 Jun -1.6 03:02:48 41° SSE 03:02:48 41° SSE 03:05:46 10° E visible
